Вернуться в каталог

CZ-6A DEB

АктивенSSO
NORAD 54429·DEBRIS·🇨🇳 China

Запущен Nov 11, 2022 с Taiyuan Satellite Launch Center

Loading…

Ближайшие Пролёты (ближайшие 24 часа)

TLE

СвежийSource: Space-Track

Эпоха: Sep 14, 2026, 08:16 UTC

1 54429U 22151FD  26257.34470671  .00000222  00000-0  20946-3 0  9999
2 54429  99.0610 225.4907 0165622 239.9558 118.5081 13.85530226193881

Отслеживайте CZ-6A DEB в реальном времени с AllMySat

Download on the App Store